Year,Month,Day,Hour,Minute,Value (Times are PST for windgust in km/hr)
2018,06,18,00,00,22.50
2018,06,18,00,01,27.40
2018,06,18,00,02,32.20
2018,06,18,00,03,24.20
2018,06,18,00,04,24.20
2018,06,18,00,05,22.50
2018,06,18,00,06,27.40
2018,06,18,00,07,16.10
2018,06,18,00,08,24.20
2018,06,18,00,09,17.70
2018,06,18,00,10,22.50
2018,06,18,00,11,22.50
2018,06,18,00,12,27.40
2018,06,18,00,13,22.50
2018,06,18,00,14,29.00
2018,06,18,00,15,30.60
2018,06,18,00,16,24.20
2018,06,18,00,17,16.10
2018,06,18,00,18,22.50
2018,06,18,00,19,24.20
2018,06,18,00,20,24.20
2018,06,18,00,21,24.20
2018,06,18,00,22,30.60
2018,06,18,00,23,25.70
2018,06,18,00,24,22.50
2018,06,18,00,25,29.00
2018,06,18,00,26,29.00
2018,06,18,00,27,20.90
2018,06,18,00,28,17.70
2018,06,18,00,29,27.40
2018,06,18,00,30,17.70
2018,06,18,00,31,22.50
2018,06,18,00,32,24.20
2018,06,18,00,33,25.70
2018,06,18,00,34,20.90
2018,06,18,00,35,20.90
2018,06,18,00,36,12.90
2018,06,18,00,37,20.90
2018,06,18,00,38,25.70
2018,06,18,00,39,20.90
2018,06,18,00,40,22.50
2018,06,18,00,41,33.80
2018,06,18,00,42,24.20
2018,06,18,00,43,25.70
2018,06,18,00,44,20.90
2018,06,18,00,45,30.60
2018,06,18,00,46,30.60
2018,06,18,00,47,24.20
2018,06,18,00,48,27.40
2018,06,18,00,49,22.50
2018,06,18,00,50,22.50
2018,06,18,00,51,25.70
2018,06,18,00,52,24.20
2018,06,18,00,53,25.70
2018,06,18,00,54,22.50
2018,06,18,00,55,32.20
2018,06,18,00,56,19.30
2018,06,18,00,57,25.70
2018,06,18,00,58,30.60
2018,06,18,00,59,22.50
2018,06,18,01,00,22.50
2018,06,18,01,01,17.70
2018,06,18,01,02,22.50
2018,06,18,01,03,19.30
2018,06,18,01,04,19.30
2018,06,18,01,05,22.50
2018,06,18,01,06,19.30
2018,06,18,01,07,22.50
2018,06,18,01,08,22.50
2018,06,18,01,09,20.90
2018,06,18,01,10,22.50
2018,06,18,01,11,20.90
2018,06,18,01,12,22.50
2018,06,18,01,13,22.50
2018,06,18,01,14,19.30
2018,06,18,01,15,17.70
2018,06,18,01,16,11.30
2018,06,18,01,17,24.20
2018,06,18,01,18,24.20
2018,06,18,01,19,29.00
2018,06,18,01,20,20.90
2018,06,18,01,21,14.50
2018,06,18,01,22,17.70
2018,06,18,01,23,14.50
2018,06,18,01,24,19.30
2018,06,18,01,25,33.80
2018,06,18,01,26,24.20
2018,06,18,01,27,20.90
2018,06,18,01,28,22.50
2018,06,18,01,29,22.50
2018,06,18,01,30,20.90
2018,06,18,01,31,20.90
2018,06,18,01,32,22.50
2018,06,18,01,33,20.90
2018,06,18,01,34,24.20
2018,06,18,01,35,22.50
2018,06,18,01,36,30.60
2018,06,18,01,37,22.50
2018,06,18,01,38,22.50
2018,06,18,01,39,22.50
2018,06,18,01,40,29.00
2018,06,18,01,41,17.70
2018,06,18,01,42,22.50
2018,06,18,01,43,20.90
2018,06,18,01,44,24.20
2018,06,18,01,45,24.20
2018,06,18,01,46,16.10
2018,06,18,01,47,22.50
2018,06,18,01,48,24.20
2018,06,18,01,49,20.90
2018,06,18,01,50,20.90
2018,06,18,01,51,22.50
2018,06,18,01,52,27.40
2018,06,18,01,53,24.20
2018,06,18,01,54,11.30
2018,06,18,01,55,22.50
2018,06,18,01,56,19.30
2018,06,18,01,57,22.50
2018,06,18,01,58,22.50
2018,06,18,01,59,20.90
2018,06,18,02,00,17.70
2018,06,18,02,01,22.50
2018,06,18,02,02,29.00
2018,06,18,02,03,38.60
2018,06,18,02,04,25.70
2018,06,18,02,05,22.50
2018,06,18,02,06,17.70
2018,06,18,02,07,16.10
2018,06,18,02,08,17.70
2018,06,18,02,09,20.90
2018,06,18,02,10,22.50
2018,06,18,02,11,25.70
2018,06,18,02,12,22.50
2018,06,18,02,13,22.50
2018,06,18,02,14,20.90
2018,06,18,02,15,30.60
2018,06,18,02,16,20.90
2018,06,18,02,17,25.70
2018,06,18,02,18,30.60
2018,06,18,02,19,27.40
2018,06,18,02,20,16.10
2018,06,18,02,21,9.60
2018,06,18,02,22,24.20
2018,06,18,02,23,24.20
2018,06,18,02,24,20.90
2018,06,18,02,25,17.70
2018,06,18,02,26,17.70
2018,06,18,02,27,20.90
2018,06,18,02,28,20.90
2018,06,18,02,29,22.50
2018,06,18,02,30,27.40
2018,06,18,02,31,27.40
2018,06,18,02,32,25.70
2018,06,18,02,33,27.40
2018,06,18,02,34,17.70
2018,06,18,02,35,20.90
2018,06,18,02,36,22.50
2018,06,18,02,37,25.70
2018,06,18,02,38,19.30
2018,06,18,02,39,24.20
2018,06,18,02,40,20.90
2018,06,18,02,41,25.70
2018,06,18,02,42,14.50
2018,06,18,02,43,19.30
2018,06,18,02,44,20.90
2018,06,18,02,45,17.70
2018,06,18,02,46,22.50
2018,06,18,02,47,20.90
2018,06,18,02,48,17.70
2018,06,18,02,49,20.90
2018,06,18,02,50,19.30
2018,06,18,02,51,22.50
2018,06,18,02,52,20.90
2018,06,18,02,53,19.30
2018,06,18,02,54,20.90
2018,06,18,02,55,22.50
2018,06,18,02,56,8.10
2018,06,18,02,57,16.10
2018,06,18,02,58,8.10
2018,06,18,02,59,14.50
2018,06,18,03,00,14.50
2018,06,18,03,01,12.90
2018,06,18,03,02,8.10
2018,06,18,03,03,9.60
2018,06,18,03,04,6.40
2018,06,18,03,05,20.90
2018,06,18,03,06,24.20
2018,06,18,03,07,8.10
2018,06,18,03,08,16.10
2018,06,18,03,09,20.90
2018,06,18,03,10,20.90
2018,06,18,03,11,14.50
2018,06,18,03,12,9.60
2018,06,18,03,13,8.10
2018,06,18,03,14,17.70
2018,06,18,03,15,19.30
2018,06,18,03,16,14.50
2018,06,18,03,17,8.10
2018,06,18,03,18,17.70
2018,06,18,03,19,9.60
2018,06,18,03,20,11.30
2018,06,18,03,21,9.60
2018,06,18,03,22,11.30
2018,06,18,03,23,8.10
2018,06,18,03,24,11.30
2018,06,18,03,25,16.10
2018,06,18,03,26,9.60
2018,06,18,03,27,8.10
2018,06,18,03,28,6.40
2018,06,18,03,29,11.30
2018,06,18,03,30,14.50
2018,06,18,03,31,11.30
2018,06,18,03,32,8.10
2018,06,18,03,33,8.10
2018,06,18,03,34,14.50
2018,06,18,03,35,17.70
2018,06,18,03,36,8.10
2018,06,18,03,37,8.10
2018,06,18,03,38,19.30
2018,06,18,03,39,20.90
2018,06,18,03,40,8.10
2018,06,18,03,41,8.10
2018,06,18,03,42,1.60
2018,06,18,03,43,8.10
2018,06,18,03,44,8.10
2018,06,18,03,45,8.10
2018,06,18,03,46,9.60
2018,06,18,03,47,6.40
2018,06,18,03,48,9.60
2018,06,18,03,49,9.60
2018,06,18,03,50,16.10
2018,06,18,03,51,11.30
2018,06,18,03,52,9.60
2018,06,18,03,53,11.30
2018,06,18,03,54,16.10
2018,06,18,03,55,11.30
2018,06,18,03,56,9.60
2018,06,18,03,57,14.50
2018,06,18,03,58,9.60
2018,06,18,03,59,8.10
2018,06,18,04,00,14.50
2018,06,18,04,01,9.60
2018,06,18,04,02,6.40
2018,06,18,04,03,16.10
2018,06,18,04,04,17.70
2018,06,18,04,05,8.10
2018,06,18,04,06,6.40
2018,06,18,04,07,9.60
2018,06,18,04,08,8.10
2018,06,18,04,09,14.50
2018,06,18,04,10,8.10
2018,06,18,04,11,8.10
2018,06,18,04,12,9.60
2018,06,18,04,13,16.10
2018,06,18,04,14,8.10
2018,06,18,04,15,12.90
2018,06,18,04,16,11.30
2018,06,18,04,17,6.40
2018,06,18,04,18,9.60
2018,06,18,04,19,9.60
2018,06,18,04,20,6.40
2018,06,18,04,21,9.60
2018,06,18,04,22,11.30
2018,06,18,04,23,8.10
2018,06,18,04,24,6.40
2018,06,18,04,25,6.40
2018,06,18,04,26,14.50
2018,06,18,04,27,14.50
2018,06,18,04,28,20.90
2018,06,18,04,29,8.10
2018,06,18,04,30,17.70
2018,06,18,04,31,14.50
2018,06,18,04,32,6.40
2018,06,18,04,33,14.50
2018,06,18,04,34,11.30
2018,06,18,04,35,16.10
2018,06,18,04,36,16.10
2018,06,18,04,37,11.30
2018,06,18,04,38,11.30
2018,06,18,04,39,9.60
2018,06,18,04,40,11.30
2018,06,18,04,41,11.30
2018,06,18,04,42,6.40
2018,06,18,04,43,9.60
2018,06,18,04,44,11.30
2018,06,18,04,45,17.70
2018,06,18,04,46,14.50
2018,06,18,04,47,11.30
2018,06,18,04,48,9.60
2018,06,18,04,49,6.40
2018,06,18,04,50,6.40
2018,06,18,04,51,8.10
2018,06,18,04,52,6.40
2018,06,18,04,53,14.50
2018,06,18,04,54,9.60
2018,06,18,04,55,9.60
2018,06,18,04,56,9.60
2018,06,18,04,57,8.10
2018,06,18,04,58,14.50
2018,06,18,04,59,17.70
2018,06,18,05,00,11.30
2018,06,18,05,01,16.10
2018,06,18,05,02,11.30
2018,06,18,05,03,24.20
2018,06,18,05,04,9.60
2018,06,18,05,05,14.50
2018,06,18,05,06,17.70
2018,06,18,05,07,9.60
2018,06,18,05,08,11.30
2018,06,18,05,09,6.40
2018,06,18,05,10,14.50
2018,06,18,05,11,19.30
2018,06,18,05,12,9.60
2018,06,18,05,13,22.50
2018,06,18,05,14,19.30
2018,06,18,05,15,25.70
2018,06,18,05,16,24.20
2018,06,18,05,17,8.10
2018,06,18,05,18,27.40
2018,06,18,05,19,20.90
2018,06,18,05,20,20.90
2018,06,18,05,21,19.30
2018,06,18,05,22,22.50
2018,06,18,05,23,17.70
2018,06,18,05,24,29.00
2018,06,18,05,25,20.90
2018,06,18,05,26,20.90
2018,06,18,05,27,16.10
2018,06,18,05,28,16.10
2018,06,18,05,29,17.70
2018,06,18,05,30,17.70
2018,06,18,05,31,16.10
2018,06,18,05,32,14.50
2018,06,18,05,33,9.60
2018,06,18,05,34,6.40
2018,06,18,05,35,9.60
2018,06,18,05,36,14.50
2018,06,18,05,37,17.70
2018,06,18,05,38,11.30
2018,06,18,05,39,19.30
2018,06,18,05,40,16.10
2018,06,18,05,41,14.50
2018,06,18,05,42,14.50
2018,06,18,05,43,14.50
2018,06,18,05,44,19.30
2018,06,18,05,45,17.70
2018,06,18,05,46,4.80
2018,06,18,05,47,4.80
2018,06,18,05,48,8.10
2018,06,18,05,49,4.80
2018,06,18,05,50,4.80
2018,06,18,05,51,3.20
2018,06,18,05,52,3.20
2018,06,18,05,53,1.60
2018,06,18,05,54,1.60
2018,06,18,05,55,17.70
2018,06,18,05,56,20.90
2018,06,18,05,57,9.60
2018,06,18,05,58,17.70
2018,06,18,05,59,14.50
2018,06,18,06,00,9.60
2018,06,18,06,01,8.10
2018,06,18,06,02,11.30
2018,06,18,06,03,20.90
2018,06,18,06,04,12.90
2018,06,18,06,05,16.10
2018,06,18,06,06,19.30
2018,06,18,06,07,11.30
2018,06,18,06,08,22.50
2018,06,18,06,09,14.50
2018,06,18,06,10,4.80
2018,06,18,06,11,14.50
2018,06,18,06,12,14.50
2018,06,18,06,13,9.60
2018,06,18,06,14,8.10
2018,06,18,06,15,8.10
2018,06,18,06,16,4.80
2018,06,18,06,17,11.30
2018,06,18,06,18,6.40
2018,06,18,06,19,4.80
2018,06,18,06,20,4.80
2018,06,18,06,21,8.10
2018,06,18,06,22,3.20
2018,06,18,06,23,3.20
2018,06,18,06,24,3.20
2018,06,18,06,25,1.60
2018,06,18,06,26,4.80
2018,06,18,06,27,4.80
2018,06,18,06,28,3.20
2018,06,18,06,29,3.20
2018,06,18,06,30,1.60
2018,06,18,06,31,9.60
2018,06,18,06,32,4.80
2018,06,18,06,33,3.20
2018,06,18,06,34,1.60
2018,06,18,06,35,4.80
2018,06,18,06,36,8.10
2018,06,18,06,37,8.10
2018,06,18,06,38,3.20
2018,06,18,06,39,3.20
2018,06,18,06,40,6.40
2018,06,18,06,41,11.30
2018,06,18,06,42,17.70
2018,06,18,06,43,17.70
2018,06,18,06,44,16.10
2018,06,18,06,45,14.50
2018,06,18,06,46,11.30
2018,06,18,06,47,14.50
2018,06,18,06,48,16.10
2018,06,18,06,49,11.30
2018,06,18,06,50,14.50
2018,06,18,06,51,11.30
2018,06,18,06,52,16.10
2018,06,18,06,53,9.60
2018,06,18,06,54,9.60
2018,06,18,06,55,9.60
2018,06,18,06,56,9.60
2018,06,18,06,57,8.10
2018,06,18,06,58,20.90
2018,06,18,06,59,16.10
2018,06,18,07,00,11.30
2018,06,18,07,01,11.30
2018,06,18,07,02,9.60
2018,06,18,07,03,9.60
2018,06,18,07,04,8.10
2018,06,18,07,05,11.30
2018,06,18,07,06,11.30
2018,06,18,07,07,9.60
2018,06,18,07,08,16.10
2018,06,18,07,09,16.10
2018,06,18,07,10,16.10
2018,06,18,07,11,19.30
2018,06,18,07,12,17.70
2018,06,18,07,13,11.30
2018,06,18,07,14,11.30
2018,06,18,07,15,20.90
2018,06,18,07,16,9.60
2018,06,18,07,17,8.10
2018,06,18,07,18,14.50
2018,06,18,07,19,17.70
2018,06,18,07,20,17.70
2018,06,18,07,21,16.10
2018,06,18,07,22,9.60
2018,06,18,07,23,6.40
2018,06,18,07,24,4.80
2018,06,18,07,25,4.80
2018,06,18,07,26,11.30
2018,06,18,07,27,6.40
2018,06,18,07,28,4.80
2018,06,18,07,29,3.20
2018,06,18,07,31,6.40
2018,06,18,07,32,8.10
2018,06,18,07,33,8.10
2018,06,18,07,34,3.20
2018,06,18,07,35,1.60
2018,06,18,07,36,4.80
2018,06,18,07,37,1.60
2018,06,18,07,38,1.60
2018,06,18,07,39,4.80
2018,06,18,07,40,3.20
2018,06,18,07,41,1.60
2018,06,18,07,42,3.20
2018,06,18,07,43,1.60
2018,06,18,07,44,8.10
2018,06,18,07,45,6.40
2018,06,18,07,46,6.40
2018,06,18,07,47,3.20
2018,06,18,07,48,8.10
2018,06,18,07,49,8.10
2018,06,18,07,50,11.30
2018,06,18,07,51,8.10
2018,06,18,07,52,3.20
2018,06,18,07,53,6.40
2018,06,18,07,54,9.60
2018,06,18,07,55,8.10
2018,06,18,07,56,9.60
2018,06,18,07,57,6.40
2018,06,18,07,58,17.70
2018,06,18,07,59,6.40
2018,06,18,08,00,9.60
2018,06,18,08,01,9.60
2018,06,18,08,02,14.50
2018,06,18,08,03,9.60
2018,06,18,08,04,11.30
2018,06,18,08,05,8.10
2018,06,18,08,06,4.80
2018,06,18,08,07,8.10
2018,06,18,08,08,4.80
2018,06,18,08,09,6.40
2018,06,18,08,10,9.60
2018,06,18,08,11,6.40
2018,06,18,08,12,11.30
2018,06,18,08,13,8.10
2018,06,18,08,14,6.40
2018,06,18,08,15,6.40
2018,06,18,08,16,6.40
2018,06,18,08,17,4.80
2018,06,18,08,18,4.80
2018,06,18,08,19,4.80
2018,06,18,08,20,4.80
2018,06,18,08,21,4.80
2018,06,18,08,22,4.80
2018,06,18,08,23,8.10
2018,06,18,08,24,4.80
2018,06,18,08,25,4.80
2018,06,18,08,26,4.80
2018,06,18,08,27,8.10
2018,06,18,08,28,9.60
2018,06,18,08,29,8.10
2018,06,18,08,30,4.80
2018,06,18,08,31,9.60
2018,06,18,08,32,6.40
2018,06,18,08,33,8.10
2018,06,18,08,34,9.60
2018,06,18,08,35,9.60
2018,06,18,08,36,6.40
2018,06,18,08,37,6.40
2018,06,18,08,38,9.60
2018,06,18,08,39,12.90
2018,06,18,08,40,4.80
2018,06,18,08,41,9.60
2018,06,18,08,42,6.40
2018,06,18,08,43,9.60
2018,06,18,08,44,14.50
2018,06,18,08,45,11.30
2018,06,18,08,46,9.60
2018,06,18,08,47,11.30
2018,06,18,08,48,11.30
2018,06,18,08,49,9.60
2018,06,18,08,50,17.70
2018,06,18,08,51,14.50
2018,06,18,08,52,11.30
2018,06,18,08,53,11.30
2018,06,18,08,54,11.30
2018,06,18,08,55,11.30
2018,06,18,08,56,14.50
2018,06,18,08,57,11.30
2018,06,18,08,58,16.10
2018,06,18,08,59,17.70
2018,06,18,09,00,14.50
2018,06,18,09,01,11.30
2018,06,18,09,02,14.50
2018,06,18,09,03,16.10
2018,06,18,09,04,16.10
2018,06,18,09,05,9.60
2018,06,18,09,06,16.10
2018,06,18,09,07,9.60
2018,06,18,09,08,8.10
2018,06,18,09,09,14.50
2018,06,18,09,10,9.60
2018,06,18,09,11,12.90
2018,06,18,09,12,11.30
2018,06,18,09,13,8.10
2018,06,18,09,14,9.60
2018,06,18,09,15,9.60
2018,06,18,09,16,4.80
2018,06,18,09,17,8.10
2018,06,18,09,18,4.80
2018,06,18,09,19,4.80
2018,06,18,09,20,8.10
2018,06,18,09,21,8.10
2018,06,18,09,22,6.40
2018,06,18,09,23,8.10
2018,06,18,09,24,8.10
2018,06,18,09,25,8.10
2018,06,18,09,26,8.10
2018,06,18,09,27,3.20
2018,06,18,09,28,6.40
2018,06,18,09,29,6.40
2018,06,18,09,30,6.40
2018,06,18,09,31,9.60
2018,06,18,09,32,8.10
2018,06,18,09,33,8.10
2018,06,18,09,34,6.40
2018,06,18,09,35,8.10
2018,06,18,09,36,9.60
2018,06,18,09,37,11.30
2018,06,18,09,38,9.60
2018,06,18,09,39,14.50
2018,06,18,09,40,12.90
2018,06,18,09,41,8.10
2018,06,18,09,42,9.60
2018,06,18,09,43,11.30
2018,06,18,09,44,9.60
2018,06,18,09,45,8.10
2018,06,18,09,46,8.10
2018,06,18,09,47,9.60
2018,06,18,09,48,14.50
2018,06,18,09,49,12.90
2018,06,18,09,50,9.60
2018,06,18,09,51,9.60
2018,06,18,09,52,11.30
2018,06,18,09,53,9.60
2018,06,18,09,54,6.40
2018,06,18,09,55,9.60
2018,06,18,09,56,11.30
2018,06,18,09,57,8.10
2018,06,18,09,58,8.10
2018,06,18,09,59,9.60
2018,06,18,10,00,8.10
2018,06,18,10,01,8.10
2018,06,18,10,02,9.60
2018,06,18,10,03,11.30
2018,06,18,10,04,8.10
2018,06,18,10,05,8.10
2018,06,18,10,06,9.60
2018,06,18,10,07,8.10
2018,06,18,10,08,9.60
2018,06,18,10,09,9.60
2018,06,18,10,10,9.60
2018,06,18,10,11,9.60
2018,06,18,10,12,9.60
2018,06,18,10,13,9.60
2018,06,18,10,14,9.60
2018,06,18,10,15,9.60
2018,06,18,10,16,9.60
2018,06,18,10,17,9.60
2018,06,18,11,41,3.20
2018,06,18,11,42,11.30
2018,06,18,11,43,11.30
2018,06,18,11,44,9.60
2018,06,18,11,45,6.40
2018,06,18,11,46,8.10
2018,06,18,11,47,8.10
2018,06,18,11,48,4.80
2018,06,18,11,49,8.10
2018,06,18,11,50,11.30
2018,06,18,11,51,8.10
2018,06,18,11,52,9.60
2018,06,18,11,53,12.90
2018,06,18,11,54,8.10
2018,06,18,11,55,6.40
2018,06,18,11,56,9.60
2018,06,18,11,57,9.60
2018,06,18,11,58,9.60
2018,06,18,11,59,9.60
2018,06,18,12,00,11.30
2018,06,18,12,01,14.50
2018,06,18,12,02,9.60
2018,06,18,12,03,9.60
2018,06,18,12,04,6.40
2018,06,18,12,05,8.10
2018,06,18,12,06,9.60
2018,06,18,12,07,9.60
2018,06,18,12,08,6.40
2018,06,18,12,09,6.40
2018,06,18,12,10,9.60
2018,06,18,12,11,16.10
2018,06,18,12,12,14.50
2018,06,18,12,13,9.60
2018,06,18,12,14,8.10
2018,06,18,12,15,6.40
2018,06,18,12,16,4.80
2018,06,18,12,17,9.60
2018,06,18,12,18,14.50
2018,06,18,12,19,11.30
2018,06,18,12,20,8.10
2018,06,18,12,21,8.10
2018,06,18,12,22,9.60
2018,06,18,12,23,11.30
2018,06,18,12,24,16.10
2018,06,18,12,25,11.30
2018,06,18,12,26,9.60
2018,06,18,12,27,6.40
2018,06,18,12,28,6.40
2018,06,18,12,29,3.20
2018,06,18,12,30,4.80
2018,06,18,12,31,8.10
2018,06,18,12,32,6.40
2018,06,18,12,33,8.10
2018,06,18,12,34,1.60
2018,06,18,12,35,1.60
2018,06,18,12,36,3.20
2018,06,18,12,40,3.20
2018,06,18,12,41,3.20
2018,06,18,12,42,3.20
2018,06,18,12,44,4.80
2018,06,18,12,45,4.80
2018,06,18,12,46,1.60
2018,06,18,12,47,6.40
2018,06,18,12,48,1.60
2018,06,18,12,49,1.60
2018,06,18,12,50,4.80
2018,06,18,12,51,4.80
2018,06,18,12,52,1.60
2018,06,18,12,53,4.80
2018,06,18,12,54,4.80
2018,06,18,12,55,8.10
2018,06,18,12,56,9.60
2018,06,18,12,57,3.20
2018,06,18,12,58,6.40
2018,06,18,12,59,11.30
2018,06,18,13,00,8.10
2018,06,18,13,01,9.60
2018,06,18,13,02,9.60
2018,06,18,13,03,8.10
2018,06,18,13,04,8.10
2018,06,18,13,05,3.20
2018,06,18,13,06,4.80
2018,06,18,13,07,6.40
2018,06,18,13,08,4.80
2018,06,18,13,09,4.80
2018,06,18,13,10,3.20
2018,06,18,13,11,3.20
2018,06,18,13,12,6.40
2018,06,18,13,13,9.60
2018,06,18,13,14,6.40
2018,06,18,13,15,1.60
2018,06,18,13,16,1.60
2018,06,18,13,17,1.60
2018,06,18,13,18,1.60
2018,06,18,13,19,6.40
2018,06,18,13,20,6.40
2018,06,18,13,21,11.30
2018,06,18,13,22,11.30
2018,06,18,13,23,9.60
2018,06,18,13,24,4.80
2018,06,18,13,25,8.10
2018,06,18,13,26,9.60
2018,06,18,13,27,4.80
2018,06,18,13,28,8.10
2018,06,18,13,29,8.10
2018,06,18,13,30,9.60
2018,06,18,13,31,8.10
2018,06,18,13,32,1.60
2018,06,18,13,33,4.80
2018,06,18,13,34,8.10
2018,06,18,13,35,8.10
2018,06,18,13,36,8.10
2018,06,18,13,37,4.80
2018,06,18,13,38,8.10
2018,06,18,13,39,8.10
2018,06,18,13,40,9.60
2018,06,18,13,41,6.40
2018,06,18,13,42,9.60
2018,06,18,13,43,8.10
2018,06,18,13,44,8.10
2018,06,18,13,45,6.40
2018,06,18,13,46,4.80
2018,06,18,13,47,6.40
2018,06,18,13,48,8.10
2018,06,18,13,49,6.40
2018,06,18,13,50,4.80
2018,06,18,13,51,4.80
2018,06,18,13,52,9.60
2018,06,18,13,53,9.60
2018,06,18,13,54,6.40
2018,06,18,13,55,4.80
2018,06,18,13,56,11.30
2018,06,18,13,57,9.60
2018,06,18,13,58,6.40
2018,06,18,13,59,3.20
2018,06,18,14,00,4.80
2018,06,18,14,01,6.40
2018,06,18,14,02,6.40
2018,06,18,14,03,6.40
2018,06,18,14,04,6.40
2018,06,18,14,05,4.80
2018,06,18,14,06,4.80
2018,06,18,14,07,8.10
2018,06,18,14,08,8.10
2018,06,18,14,09,8.10
2018,06,18,14,10,8.10
2018,06,18,14,11,9.60
2018,06,18,14,12,9.60
2018,06,18,14,13,8.10
2018,06,18,14,14,12.90
2018,06,18,14,15,9.60
2018,06,18,14,16,6.40
2018,06,18,14,17,9.60
2018,06,18,14,18,9.60
2018,06,18,14,19,9.60
2018,06,18,14,20,6.40
2018,06,18,14,21,4.80
2018,06,18,14,22,4.80
2018,06,18,14,23,4.80
2018,06,18,14,24,4.80
2018,06,18,14,25,8.10
2018,06,18,14,26,9.60
2018,06,18,14,27,8.10
2018,06,18,14,28,8.10
2018,06,18,14,29,8.10
2018,06,18,14,30,8.10
2018,06,18,14,31,8.10
2018,06,18,14,32,8.10
2018,06,18,14,33,6.40
2018,06,18,14,34,8.10
2018,06,18,14,35,8.10
2018,06,18,14,36,9.60
2018,06,18,14,37,9.60
2018,06,18,14,38,4.80
2018,06,18,14,39,8.10
2018,06,18,14,40,9.60
2018,06,18,14,41,8.10
2018,06,18,14,42,6.40
2018,06,18,14,43,6.40
2018,06,18,14,44,6.40
2018,06,18,14,45,8.10
2018,06,18,14,46,8.10
2018,06,18,14,47,8.10
2018,06,18,14,48,8.10
2018,06,18,14,49,8.10
2018,06,18,14,50,4.80
2018,06,18,14,51,6.40
2018,06,18,14,52,8.10
2018,06,18,14,53,6.40
2018,06,18,14,54,3.20
2018,06,18,14,55,6.40
2018,06,18,14,56,3.20
2018,06,18,14,57,6.40
2018,06,18,14,58,6.40
2018,06,18,14,59,6.40
2018,06,18,15,00,4.80
2018,06,18,15,01,6.40
2018,06,18,15,02,8.10
2018,06,18,15,03,6.40
2018,06,18,15,04,6.40
2018,06,18,15,05,6.40
2018,06,18,15,06,6.40
2018,06,18,15,07,3.20
2018,06,18,15,08,4.80
2018,06,18,15,09,9.60
2018,06,18,15,10,8.10
2018,06,18,15,11,8.10
2018,06,18,15,12,4.80
2018,06,18,15,13,6.40
2018,06,18,15,14,6.40
2018,06,18,15,15,8.10
2018,06,18,15,16,6.40
2018,06,18,15,17,8.10
2018,06,18,15,18,6.40
2018,06,18,15,19,9.60
2018,06,18,15,20,6.40
2018,06,18,15,21,8.10
2018,06,18,15,22,9.60
2018,06,18,15,23,8.10
2018,06,18,15,24,6.40
2018,06,18,15,25,4.80
2018,06,18,15,26,4.80
2018,06,18,15,27,8.10
2018,06,18,15,28,8.10
2018,06,18,15,29,6.40
2018,06,18,15,30,4.80
2018,06,18,15,31,6.40
2018,06,18,15,32,6.40
2018,06,18,15,33,6.40
2018,06,18,15,34,8.10
2018,06,18,15,35,6.40
2018,06,18,15,36,4.80
2018,06,18,15,37,4.80
2018,06,18,15,38,6.40
2018,06,18,15,39,4.80
2018,06,18,15,40,9.60
2018,06,18,15,41,8.10
2018,06,18,15,42,8.10
2018,06,18,15,43,6.40
2018,06,18,15,44,6.40
2018,06,18,15,45,4.80
2018,06,18,15,46,6.40
2018,06,18,15,47,6.40
2018,06,18,15,48,6.40
2018,06,18,15,49,6.40
2018,06,18,15,50,6.40
2018,06,18,15,51,9.60
2018,06,18,15,52,9.60
2018,06,18,15,53,6.40
2018,06,18,15,54,6.40
2018,06,18,15,55,4.80
2018,06,18,15,56,4.80
2018,06,18,15,57,6.40
2018,06,18,15,58,4.80
2018,06,18,15,59,8.10
2018,06,18,16,00,6.40
2018,06,18,16,01,4.80
2018,06,18,16,02,4.80
2018,06,18,16,03,3.20
2018,06,18,16,04,4.80
2018,06,18,16,05,4.80
2018,06,18,16,06,3.20
2018,06,18,16,07,4.80
2018,06,18,16,08,4.80
2018,06,18,16,09,4.80
2018,06,18,16,10,8.10
2018,06,18,16,11,9.60
2018,06,18,16,12,8.10
2018,06,18,16,13,6.40
2018,06,18,16,14,8.10
2018,06,18,16,15,6.40
2018,06,18,16,16,8.10
2018,06,18,16,17,8.10
2018,06,18,16,18,8.10
2018,06,18,16,19,6.40
2018,06,18,16,20,6.40
2018,06,18,16,21,6.40
2018,06,18,16,22,4.80
2018,06,18,16,23,6.40
2018,06,18,16,24,6.40
2018,06,18,16,25,6.40
2018,06,18,16,26,8.10
2018,06,18,16,27,8.10
2018,06,18,16,28,8.10
2018,06,18,16,29,6.40
2018,06,18,16,30,8.10
2018,06,18,16,31,4.80
2018,06,18,16,32,4.80
2018,06,18,16,33,8.10
2018,06,18,16,34,9.60
2018,06,18,16,35,4.80
2018,06,18,16,36,8.10
2018,06,18,16,37,8.10
2018,06,18,16,38,4.80
2018,06,18,16,39,4.80
2018,06,18,16,40,6.40
2018,06,18,16,41,8.10
2018,06,18,16,42,4.80
2018,06,18,16,43,4.80
2018,06,18,16,44,6.40
2018,06,18,16,45,8.10
2018,06,18,16,46,4.80
2018,06,18,16,47,8.10
2018,06,18,16,48,4.80
2018,06,18,16,49,6.40
2018,06,18,16,50,4.80
2018,06,18,16,51,4.80
2018,06,18,16,52,6.40
2018,06,18,16,53,6.40
2018,06,18,16,54,4.80
2018,06,18,16,55,4.80
2018,06,18,16,56,6.40
2018,06,18,16,57,6.40
2018,06,18,16,58,8.10
2018,06,18,16,59,6.40
2018,06,18,17,00,4.80
2018,06,18,17,01,6.40
2018,06,18,17,02,6.40
2018,06,18,17,03,8.10
2018,06,18,17,04,6.40
2018,06,18,17,05,8.10
2018,06,18,17,06,4.80
2018,06,18,17,07,6.40
2018,06,18,17,08,6.40
2018,06,18,17,09,4.80
2018,06,18,17,10,6.40
2018,06,18,17,11,6.40
2018,06,18,17,12,1.60
2018,06,18,17,13,4.80
2018,06,18,17,14,8.10
2018,06,18,17,15,4.80
2018,06,18,17,16,3.20
2018,06,18,17,17,6.40
2018,06,18,17,18,6.40
2018,06,18,17,19,4.80
2018,06,18,17,20,6.40
2018,06,18,17,21,6.40
2018,06,18,17,22,6.40
2018,06,18,17,23,6.40
2018,06,18,17,24,6.40
2018,06,18,17,25,4.80
2018,06,18,17,26,4.80
2018,06,18,17,27,4.80
2018,06,18,17,28,3.20
2018,06,18,17,29,4.80
2018,06,18,17,30,4.80
2018,06,18,17,31,6.40
2018,06,18,17,32,3.20
2018,06,18,17,33,4.80
2018,06,18,17,34,3.20
2018,06,18,17,35,3.20
2018,06,18,17,36,1.60
2018,06,18,17,44,3.20
2018,06,18,17,45,4.80
2018,06,18,17,46,3.20
2018,06,18,17,47,1.60
2018,06,18,17,52,3.20
2018,06,18,17,53,6.40
2018,06,18,17,54,3.20
2018,06,18,17,55,3.20
2018,06,18,17,56,3.20
2018,06,18,17,57,6.40
2018,06,18,17,58,4.80
2018,06,18,17,59,6.40
2018,06,18,18,00,6.40
2018,06,18,18,01,6.40
2018,06,18,18,02,8.10
2018,06,18,18,03,4.80
2018,06,18,18,04,4.80
2018,06,18,18,05,4.80
2018,06,18,18,06,4.80
2018,06,18,18,07,6.40
2018,06,18,18,08,4.80
2018,06,18,18,09,6.40
2018,06,18,18,10,6.40
2018,06,18,18,11,4.80
2018,06,18,18,12,4.80
2018,06,18,18,13,4.80
2018,06,18,18,14,3.20
2018,06,18,18,15,3.20
2018,06,18,18,16,4.80
2018,06,18,18,17,4.80
2018,06,18,18,18,4.80
2018,06,18,18,19,6.40
2018,06,18,18,20,8.10
2018,06,18,18,21,6.40
2018,06,18,18,22,4.80
2018,06,18,18,23,4.80
2018,06,18,18,24,3.20
2018,06,18,18,25,3.20
2018,06,18,18,26,3.20
2018,06,18,18,27,3.20
2018,06,18,18,28,3.20
2018,06,18,18,29,3.20
2018,06,18,18,30,3.20
2018,06,18,18,31,4.80
2018,06,18,18,32,3.20
2018,06,18,18,33,4.80
2018,06,18,18,34,3.20
2018,06,18,18,35,3.20
2018,06,18,18,36,3.20
2018,06,18,18,37,3.20
2018,06,18,18,38,1.60
2018,06,18,18,39,1.60
2018,06,18,18,45,3.20
2018,06,18,18,46,3.20
2018,06,18,18,47,4.80
2018,06,18,18,48,4.80
2018,06,18,18,49,4.80
2018,06,18,18,50,4.80
2018,06,18,18,51,3.20
2018,06,18,18,52,4.80
2018,06,18,18,53,4.80
2018,06,18,18,54,4.80
2018,06,18,18,55,1.60
2018,06,18,19,00,1.60
2018,06,18,19,01,1.60
2018,06,18,19,02,1.60
2018,06,18,19,03,1.60
2018,06,18,19,04,1.60
2018,06,18,19,06,3.20
2018,06,18,19,07,4.80
2018,06,18,19,08,1.60
2018,06,18,19,09,1.60
2018,06,18,19,10,3.20
2018,06,18,19,11,4.80
2018,06,18,19,12,6.40
2018,06,18,19,13,3.20
2018,06,18,19,14,3.20
2018,06,18,19,15,4.80
2018,06,18,19,16,3.20
2018,06,18,19,17,3.20
2018,06,18,19,18,1.60
2018,06,18,19,19,3.20
2018,06,18,19,20,1.60
2018,06,18,19,21,3.20
2018,06,18,19,22,4.80
2018,06,18,19,23,3.20
2018,06,18,19,25,4.80
2018,06,18,19,26,4.80
2018,06,18,19,27,3.20
2018,06,18,19,28,3.20
2018,06,18,19,29,4.80
2018,06,18,19,30,6.40
2018,06,18,19,31,3.20
2018,06,18,19,32,3.20
2018,06,18,19,33,1.60
2018,06,18,19,34,4.80
2018,06,18,19,35,1.60
2018,06,18,19,36,3.20
2018,06,18,19,38,1.60
2018,06,18,19,39,4.80
2018,06,18,19,40,6.40